Location: Fontevrault
(47.1823°N, 0.0493°E)
Time: 11:01:46
(UTC+00:00)

SPOT 1/Viking Rocket - Pass Details

Date: 16 June 2021
Orbit: 778 x 793 km, 98.4° (Epoch: 27 July)

Event Time Altitude Azimuth Distance (km) Brightness Sun altitude
Exits shadow 21:05:00 - 170° (S) 2,559 5.7 -9.1°
Reaches altitude 10° 21:05:35 10° 170° (S) 2,325 5.5 -9.2°
Maximum altitude 21:10:43 76° 256° (WSW) 807 3.7 -9.7°
Drops below altitude 10° 21:15:53 10° 343° (NNW) 2,341 7.3 -10.3°
Sets 21:18:13 0° 345° (NNW) 3,274 8.2 -10.5°
